Time,TemperatureF,DewpointF,PressureIn,WindDirection,WindDirectionDegrees,WindSpeedMPH,WindSpeedGustMPH,Humidity,HourlyPrecipIn,Conditions,Clouds,dailyrainin,SoftwareType,DateUTC
2013-07-29 00:01:00,67.8,56.5,29.47,SSW,202,2.2,2.2,67,0.00,,,0.00,VWS V14.01,2013-07-29 04:01:00,
2013-07-29 00:02:00,67.8,56.5,29.47,South,180,2.9,2.9,67,0.00,,,0.00,VWS V14.01,2013-07-29 04:02:00,
2013-07-29 00:03:00,67.6,56.3,29.47,South,180,2.5,2.5,67,0.00,,,0.00,VWS V14.01,2013-07-29 04:03:00,
2013-07-29 00:08:00,67.1,56.6,29.47,SSW,202,0.0,0.0,69,0.00,,,0.00,VWS V14.01,2013-07-29 04:08:00,
2013-07-29 00:13:00,67.1,56.2,29.47,WSW,248,0.0,0.0,68,0.00,,,0.00,VWS V14.01,2013-07-29 04:13:00,
2013-07-29 00:18:00,66.7,56.7,29.47,West,270,1.6,1.6,70,0.00,,,0.00,VWS V14.01,2013-07-29 04:18:00,
2013-07-29 00:24:00,66.4,56.3,29.47,WSW,248,4.0,4.0,70,0.00,,,0.00,VWS V14.01,2013-07-29 04:24:00,
2013-07-29 00:29:00,66.4,56.3,29.47,West,270,3.8,3.8,70,0.00,,,0.00,VWS V14.01,2013-07-29 04:29:00,
2013-07-29 00:34:00,66.6,56.1,29.47,WSW,248,3.8,3.8,69,0.00,,,0.00,VWS V14.01,2013-07-29 04:34:00,
2013-07-29 00:39:00,66.7,56.3,29.47,West,270,4.9,4.9,69,0.00,,,0.00,VWS V14.01,2013-07-29 04:39:00,
2013-07-29 00:44:00,66.9,56.0,29.47,WSW,248,3.8,3.8,68,0.00,,,0.00,VWS V14.01,2013-07-29 04:44:00,
2013-07-29 00:49:00,67.1,56.2,29.47,West,270,4.0,4.0,68,0.00,,,0.00,VWS V14.01,2013-07-29 04:49:00,
2013-07-29 00:54:00,67.1,56.2,29.50,WNW,292,4.9,4.9,68,0.00,,,0.00,VWS V14.01,2013-07-29 04:54:00,
2013-07-29 00:59:00,67.1,56.2,29.50,West,270,3.8,3.8,68,0.00,,,0.00,VWS V14.01,2013-07-29 04:59:00,
2013-07-29 01:04:00,66.9,56.0,29.50,WSW,248,3.1,3.1,68,0.00,,,0.00,VWS V14.01,2013-07-29 05:04:00,
2013-07-29 01:09:00,66.9,56.0,29.50,WSW,248,4.3,4.3,68,0.00,,,0.00,VWS V14.01,2013-07-29 05:09:00,
2013-07-29 01:14:00,66.9,56.0,29.50,West,270,4.3,4.3,68,0.00,,,0.00,VWS V14.01,2013-07-29 05:14:00,
2013-07-29 01:19:00,66.9,55.6,29.50,West,270,3.4,3.4,67,0.00,,,0.00,VWS V14.01,2013-07-29 05:19:00,
2013-07-29 01:24:00,66.9,55.6,29.47,WSW,248,4.0,4.0,67,0.00,,,0.00,VWS V14.01,2013-07-29 05:24:00,
2013-07-29 01:30:00,66.9,55.2,29.47,WSW,248,3.8,3.8,66,0.00,,,0.00,VWS V14.01,2013-07-29 05:30:00,
2013-07-29 01:35:00,66.9,55.2,29.47,West,270,4.7,4.7,66,0.00,,,0.00,VWS V14.01,2013-07-29 05:35:00,
2013-07-29 01:40:00,66.7,55.0,29.50,West,270,3.6,3.6,66,0.00,,,0.00,VWS V14.01,2013-07-29 05:40:00,
2013-07-29 01:45:00,66.6,54.9,29.50,West,270,3.8,3.8,66,0.00,,,0.00,VWS V14.01,2013-07-29 05:45:00,
2013-07-29 01:50:00,66.6,54.9,29.50,West,270,3.6,3.6,66,0.00,,,0.00,VWS V14.01,2013-07-29 05:50:00,
2013-07-29 01:55:00,66.6,54.4,29.50,WSW,248,3.6,3.6,65,0.00,,,0.00,VWS V14.01,2013-07-29 05:55:00,
2013-07-29 02:00:00,66.6,54.4,29.50,WNW,292,2.9,2.9,65,0.00,,,0.00,VWS V14.01,2013-07-29 06:00:00,
2013-07-29 02:05:00,66.6,54.4,29.50,West,270,0.0,0.0,65,0.00,,,0.00,VWS V14.01,2013-07-29 06:05:00,
2013-07-29 02:10:00,66.4,54.7,29.50,SE,135,2.7,2.7,66,0.00,,,0.00,VWS V14.01,2013-07-29 06:10:00,
2013-07-29 02:15:00,65.8,55.0,29.50,ESE,112,1.6,1.6,68,0.00,,,0.00,VWS V14.01,2013-07-29 06:15:00,
2013-07-29 02:20:00,65.3,54.9,29.50,SE,135,0.0,0.0,69,0.00,,,0.00,VWS V14.01,2013-07-29 06:20:00,
2013-07-29 02:25:00,64.9,54.5,29.50,SSW,202,1.1,1.1,69,0.00,,,0.00,VWS V14.01,2013-07-29 06:25:00,
2013-07-29 02:30:00,64.8,54.4,29.50,SW,225,0.0,0.0,69,0.00,,,0.00,VWS V14.01,2013-07-29 06:30:00,
2013-07-29 02:35:00,64.6,54.2,29.50,West,270,0.0,0.0,69,0.00,,,0.00,VWS V14.01,2013-07-29 06:35:00,
2013-07-29 02:40:00,64.4,54.4,29.53,West,270,0.0,0.0,70,0.00,,,0.00,VWS V14.01,2013-07-29 06:40:00,
2013-07-29 02:46:00,64.2,54.2,29.53,West,270,0.0,0.0,70,0.00,,,0.00,VWS V14.01,2013-07-29 06:46:00,
2013-07-29 02:51:00,63.9,54.3,29.53,SW,225,1.3,1.3,71,0.00,,,0.00,VWS V14.01,2013-07-29 06:51:00,
2013-07-29 02:56:00,63.7,54.1,29.50,SSW,202,2.0,2.0,71,0.00,,,0.00,VWS V14.01,2013-07-29 06:56:00,
2013-07-29 03:01:00,63.5,53.9,29.50,SSW,202,0.0,0.0,71,0.00,,,0.00,VWS V14.01,2013-07-29 07:01:00,
2013-07-29 03:06:00,63.5,54.3,29.50,South,180,3.1,3.1,72,0.00,,,0.00,VWS V14.01,2013-07-29 07:06:00,
2013-07-29 03:11:00,63.3,54.2,29.50,SSE,158,2.7,2.7,72,0.00,,,0.00,VWS V14.01,2013-07-29 07:11:00,
2013-07-29 03:16:00,63.1,54.3,29.50,South,180,2.0,2.0,73,0.00,,,0.00,VWS V14.01,2013-07-29 07:16:00,
2013-07-29 03:21:00,63.0,54.2,29.50,SSE,158,2.0,2.0,73,0.00,,,0.00,VWS V14.01,2013-07-29 07:21:00,
2013-07-29 03:26:00,62.6,53.8,29.50,SE,135,0.0,0.0,73,0.00,,,0.00,VWS V14.01,2013-07-29 07:26:00,
2013-07-29 03:31:00,62.4,54.0,29.50,West,270,0.9,0.9,74,0.00,,,0.00,VWS V14.01,2013-07-29 07:31:00,
2013-07-29 03:36:00,62.2,53.9,29.50,SSW,202,1.6,1.6,74,0.00,,,0.00,VWS V14.01,2013-07-29 07:36:00,
2013-07-29 03:41:00,62.1,53.7,29.50,SSW,202,1.3,1.3,74,0.00,,,0.00,VWS V14.01,2013-07-29 07:41:00,
2013-07-29 03:46:00,61.9,53.9,29.50,South,180,0.9,0.9,75,0.00,,,0.00,VWS V14.01,2013-07-29 07:46:00,
2013-07-29 03:51:00,61.9,53.5,29.50,South,180,0.0,0.0,74,0.00,,,0.00,VWS V14.01,2013-07-29 07:51:00,
2013-07-29 03:57:00,61.7,53.3,29.50,South,180,0.0,0.0,74,0.00,,,0.00,VWS V14.01,2013-07-29 07:57:00,
2013-07-29 04:02:00,61.5,53.2,29.50,SSE,158,1.6,1.6,74,0.00,,,0.00,VWS V14.01,2013-07-29 08:02:00,
2013-07-29 04:07:00,61.3,53.4,29.53,SSW,202,0.0,0.0,75,0.00,,,0.00,VWS V14.01,2013-07-29 08:07:00,
2013-07-29 04:12:00,61.2,53.2,29.53,SSW,202,0.0,0.0,75,0.00,,,0.00,VWS V14.01,2013-07-29 08:12:00,
2013-07-29 04:17:00,61.0,53.0,29.53,West,270,0.0,0.0,75,0.00,,,0.00,VWS V14.01,2013-07-29 08:17:00,
2013-07-29 04:22:00,61.3,53.0,29.53,WSW,248,3.1,3.1,74,0.00,,,0.00,VWS V14.01,2013-07-29 08:22:00,
2013-07-29 04:27:00,61.5,53.2,29.53,West,270,3.1,3.1,74,0.00,,,0.00,VWS V14.01,2013-07-29 08:27:00,
2013-07-29 04:32:00,61.7,53.0,29.53,WSW,248,1.3,1.3,73,0.00,,,0.00,VWS V14.01,2013-07-29 08:32:00,
2013-07-29 04:37:00,61.5,52.8,29.53,WSW,248,1.6,1.6,73,0.00,,,0.00,VWS V14.01,2013-07-29 08:37:00,
2013-07-29 04:42:00,61.3,53.0,29.53,WSW,248,2.2,2.2,74,0.00,,,0.00,VWS V14.01,2013-07-29 08:42:00,
2013-07-29 04:47:00,61.0,52.7,29.53,WSW,248,1.6,1.6,74,0.00,,,0.00,VWS V14.01,2013-07-29 08:47:00,
2013-07-29 04:52:00,60.6,53.0,29.53,WSW,248,1.3,1.3,76,0.00,,,0.00,VWS V14.01,2013-07-29 08:52:00,
2013-07-29 04:57:00,60.4,52.8,29.53,WSW,248,2.5,2.5,76,0.00,,,0.00,VWS V14.01,2013-07-29 08:57:00,
2013-07-29 05:02:00,60.3,53.0,29.53,WSW,248,2.5,2.5,77,0.00,,,0.00,VWS V14.01,2013-07-29 09:02:00,
2013-07-29 05:08:00,60.1,53.2,29.53,WSW,248,2.2,2.2,78,0.00,,,0.00,VWS V14.01,2013-07-29 09:08:00,
2013-07-29 05:13:00,59.9,52.7,29.53,SSW,202,2.2,2.2,77,0.00,,,0.00,VWS V14.01,2013-07-29 09:13:00,
2013-07-29 05:18:00,60.1,52.9,29.53,SW,225,1.3,1.3,77,0.00,,,0.00,VWS V14.01,2013-07-29 09:18:00,
2013-07-29 05:23:00,60.1,52.5,29.53,SSW,202,1.6,1.6,76,0.00,,,0.00,VWS V14.01,2013-07-29 09:23:00,
2013-07-29 05:28:00,60.1,52.1,29.53,SSW,202,1.6,1.6,75,0.00,,,0.00,VWS V14.01,2013-07-29 09:28:00,
2013-07-29 05:33:00,59.9,52.3,29.53,SSW,202,1.6,1.6,76,0.00,,,0.00,VWS V14.01,2013-07-29 09:33:00,
2013-07-29 05:38:00,59.7,52.2,29.53,WSW,248,2.7,2.7,76,0.00,,,0.00,VWS V14.01,2013-07-29 09:38:00,
2013-07-29 05:43:00,59.7,52.2,29.53,WSW,248,2.0,2.0,76,0.00,,,0.00,VWS V14.01,2013-07-29 09:43:00,
2013-07-29 05:48:00,59.4,52.2,29.53,SSW,202,2.2,2.2,77,0.00,,,0.00,VWS V14.01,2013-07-29 09:48:00,
2013-07-29 05:53:00,59.4,52.5,29.56,SSW,202,2.0,2.0,78,0.00,,,0.00,VWS V14.01,2013-07-29 09:53:00,
2013-07-29 05:58:00,59.2,52.3,29.56,SW,225,2.5,2.5,78,0.00,,,0.00,VWS V14.01,2013-07-29 09:58:00,
2013-07-29 06:03:00,59.0,52.2,29.56,SSW,202,3.1,3.1,78,0.00,,,0.00,VWS V14.01,2013-07-29 10:03:00,
2013-07-29 06:09:00,58.8,52.3,29.56,SSW,202,2.0,2.0,79,0.00,,,0.00,VWS V14.01,2013-07-29 10:09:00,
2013-07-29 06:14:00,58.8,52.3,29.56,SW,225,1.3,1.3,79,0.00,,,0.00,VWS V14.01,2013-07-29 10:14:00,
2013-07-29 06:19:00,58.6,52.2,29.56,SW,225,1.3,1.3,79,0.00,,,0.00,VWS V14.01,2013-07-29 10:19:00,
2013-07-29 06:24:00,58.8,52.3,29.56,WSW,248,1.6,1.6,79,0.00,,,0.00,VWS V14.01,2013-07-29 10:24:00,
2013-07-29 06:30:00,58.8,52.3,29.56,SSW,202,2.5,2.5,79,0.00,,,0.00,VWS V14.01,2013-07-29 10:30:00,
2013-07-29 06:35:00,58.8,52.3,29.56,SW,225,1.3,1.3,79,0.00,,,0.00,VWS V14.01,2013-07-29 10:35:00,
2013-07-29 06:40:00,58.8,52.7,29.56,SSW,202,1.6,1.6,80,0.00,,,0.00,VWS V14.01,2013-07-29 10:40:00,
2013-07-29 06:46:00,58.8,52.7,29.56,SW,225,0.0,0.0,80,0.00,,,0.00,VWS V14.01,2013-07-29 10:46:00,
2013-07-29 06:51:00,58.8,52.7,29.56,West,270,0.0,0.0,80,0.00,,,0.00,VWS V14.01,2013-07-29 10:51:00,
2013-07-29 06:56:00,59.0,52.8,29.56,SW,225,0.0,0.0,80,0.00,,,0.00,VWS V14.01,2013-07-29 10:56:00,
2013-07-29 07:01:00,59.2,53.0,29.56,West,270,0.9,0.9,80,0.00,,,0.00,VWS V14.01,2013-07-29 11:01:00,
2013-07-29 07:06:00,59.2,53.0,29.56,South,180,0.0,0.0,80,0.00,,,0.00,VWS V14.01,2013-07-29 11:06:00,
2013-07-29 07:12:00,59.4,53.2,29.56,SSW,202,1.3,1.3,80,0.00,,,0.00,VWS V14.01,2013-07-29 11:12:00,
2013-07-29 07:17:00,59.7,53.5,29.56,SSW,202,0.0,0.0,80,0.00,,,0.00,VWS V14.01,2013-07-29 11:17:00,
2013-07-29 07:22:00,59.9,53.7,29.53,SSW,202,1.3,1.3,80,0.00,,,0.00,VWS V14.01,2013-07-29 11:22:00,
2013-07-29 07:27:00,60.1,54.2,29.53,SSW,202,0.0,0.0,81,0.00,,,0.00,VWS V14.01,2013-07-29 11:27:00,
2013-07-29 07:32:00,60.4,54.6,29.53,SSW,202,0.0,0.0,81,0.00,,,0.00,VWS V14.01,2013-07-29 11:32:00,
2013-07-29 07:38:00,60.8,54.6,29.56,West,270,0.0,0.0,80,0.00,,,0.00,VWS V14.01,2013-07-29 11:38:00,
2013-07-29 07:43:00,61.2,54.6,29.56,WNW,292,0.0,0.0,79,0.00,,,0.00,VWS V14.01,2013-07-29 11:43:00,
2013-07-29 07:48:00,61.5,55.0,29.56,SSW,202,0.0,0.0,79,0.00,,,0.00,VWS V14.01,2013-07-29 11:48:00,
2013-07-29 07:53:00,61.7,55.5,29.56,WSW,248,0.0,0.0,80,0.00,,,0.00,VWS V14.01,2013-07-29 11:53:00,
2013-07-29 07:58:00,61.9,55.3,29.56,WSW,248,0.0,0.0,79,0.00,,,0.00,VWS V14.01,2013-07-29 11:58:00,
2013-07-29 08:03:00,62.2,55.7,29.56,SSW,202,0.0,0.0,79,0.00,,,0.00,VWS V14.01,2013-07-29 12:03:00,
2013-07-29 08:09:00,62.6,55.7,29.53,SSW,202,0.0,0.0,78,0.00,,,0.00,VWS V14.01,2013-07-29 12:09:00,
2013-07-29 08:14:00,63.0,56.0,29.53,SSE,158,0.0,0.0,78,0.00,,,0.00,VWS V14.01,2013-07-29 12:14:00,
2013-07-29 08:19:00,63.3,56.3,29.53,WSW,248,0.9,0.9,78,0.00,,,0.00,VWS V14.01,2013-07-29 12:19:00,
2013-07-29 08:25:00,63.7,56.3,29.56,WSW,248,0.9,0.9,77,0.00,,,0.00,VWS V14.01,2013-07-29 12:25:00,
2013-07-29 08:30:00,64.2,56.5,29.56,WSW,248,2.9,2.9,76,0.00,,,0.00,VWS V14.01,2013-07-29 12:30:00,
2013-07-29 08:35:00,64.6,56.5,29.56,West,270,0.0,0.0,75,0.00,,,0.00,VWS V14.01,2013-07-29 12:35:00,
2013-07-29 08:40:00,64.9,55.7,29.56,WNW,292,1.6,1.6,72,0.00,,,0.00,VWS V14.01,2013-07-29 12:40:00,
2013-07-29 08:46:00,65.1,55.9,29.56,WSW,248,2.7,2.7,72,0.00,,,0.00,VWS V14.01,2013-07-29 12:46:00,
2013-07-29 08:51:00,65.7,55.6,29.56,South,180,2.5,2.5,70,0.00,,,0.00,VWS V14.01,2013-07-29 12:51:00,
2013-07-29 08:56:00,65.8,55.0,29.56,WSW,248,2.9,2.9,68,0.00,,,0.00,VWS V14.01,2013-07-29 12:56:00,
2013-07-29 09:01:00,66.2,55.3,29.56,West,270,2.5,2.5,68,0.00,,,0.00,VWS V14.01,2013-07-29 13:01:00,
2013-07-29 09:06:00,66.4,55.5,29.56,West,270,3.1,3.1,68,0.00,,,0.00,VWS V14.01,2013-07-29 13:06:00,
2013-07-29 09:12:00,66.6,55.3,29.56,WNW,292,1.3,1.3,67,0.00,,,0.00,VWS V14.01,2013-07-29 13:12:00,
2013-07-29 09:17:00,66.7,55.5,29.56,South,180,2.5,2.5,67,0.00,,,0.00,VWS V14.01,2013-07-29 13:17:00,
2013-07-29 09:22:00,66.9,55.2,29.56,SSW,202,3.8,3.8,66,0.00,,,0.00,VWS V14.01,2013-07-29 13:22:00,
2013-07-29 09:27:00,67.3,54.7,29.56,East,90,1.3,1.3,64,0.00,,,0.00,VWS V14.01,2013-07-29 13:27:00,
2013-07-29 09:32:00,67.5,53.1,29.56,WSW,248,2.2,2.2,60,0.00,,,0.00,VWS V14.01,2013-07-29 13:32:00,
2013-07-29 09:37:00,67.5,53.6,29.53,WNW,292,4.3,4.3,61,0.00,,,0.00,VWS V14.01,2013-07-29 13:37:00,
2013-07-29 09:42:00,67.6,54.6,29.53,SE,135,0.0,0.0,63,0.00,,,0.00,VWS V14.01,2013-07-29 13:42:00,
2013-07-29 09:47:00,67.8,55.2,29.53,NNW,338,3.1,3.1,64,0.00,,,0.00,VWS V14.01,2013-07-29 13:47:00,
2013-07-29 09:53:00,68.2,54.7,29.56,NNW,338,1.3,1.3,62,0.00,,,0.00,VWS V14.01,2013-07-29 13:53:00,
2013-07-29 09:58:00,68.0,55.0,29.56,NNE,22,2.7,2.7,63,0.00,,,0.00,VWS V14.01,2013-07-29 13:58:00,
2013-07-29 10:03:00,68.4,54.8,29.56,NW,315,2.5,2.5,62,0.00,,,0.00,VWS V14.01,2013-07-29 14:03:00,
2013-07-29 10:08:00,68.2,54.2,29.56,NE,45,0.0,0.0,61,0.00,,,0.00,VWS V14.01,2013-07-29 14:08:00,
2013-07-29 10:14:00,68.5,55.0,29.56,SSW,202,6.5,6.5,62,0.00,,,0.00,VWS V14.01,2013-07-29 14:14:00,
2013-07-29 10:19:00,68.9,55.8,29.56,NE,45,1.6,1.6,63,0.00,,,0.00,VWS V14.01,2013-07-29 14:19:00,
2013-07-29 10:24:00,69.3,55.2,29.56,WSW,248,6.9,6.9,61,0.00,,,0.00,VWS V14.01,2013-07-29 14:24:00,
2013-07-29 10:29:00,69.4,55.4,29.56,NNW,338,3.1,3.1,61,0.00,,,0.00,VWS V14.01,2013-07-29 14:29:00,
2013-07-29 10:34:00,69.4,55.9,29.56,NNE,22,4.0,4.0,62,0.00,,,0.00,VWS V14.01,2013-07-29 14:34:00,
2013-07-29 10:39:00,69.6,56.5,29.56,North,0,3.6,3.6,63,0.00,,,0.00,VWS V14.01,2013-07-29 14:39:00,
2013-07-29 10:44:00,69.6,53.7,29.56,North,0,3.4,3.4,57,0.00,,,0.00,VWS V14.01,2013-07-29 14:44:00,
2013-07-29 10:49:00,70.0,53.6,29.56,North,0,4.3,4.3,56,0.00,,,0.00,VWS V14.01,2013-07-29 14:49:00,
2013-07-29 10:55:00,70.2,54.7,29.53,North,0,2.5,2.5,58,0.00,,,0.00,VWS V14.01,2013-07-29 14:55:00,
2013-07-29 11:00:00,70.3,54.4,29.53,NNW,338,2.5,2.5,57,0.00,,,0.00,VWS V14.01,2013-07-29 15:00:00,
2013-07-29 11:06:00,70.5,54.6,29.53,NNW,338,2.5,2.5,57,0.00,,,0.00,VWS V14.01,2013-07-29 15:06:00,
2013-07-29 11:11:00,70.9,53.9,29.56,WNW,292,2.9,2.9,55,0.00,,,0.00,VWS V14.01,2013-07-29 15:11:00,
2013-07-29 11:16:00,71.1,51.0,29.56,West,270,2.2,2.2,49,0.00,,,0.00,VWS V14.01,2013-07-29 15:16:00,
2013-07-29 11:22:00,71.2,51.1,29.56,NNW,338,4.9,4.9,49,0.00,,,0.00,VWS V14.01,2013-07-29 15:22:00,
2013-07-29 11:27:00,71.6,50.9,29.56,WSW,248,8.7,8.7,48,0.00,,,0.00,VWS V14.01,2013-07-29 15:27:00,
2013-07-29 11:32:00,72.0,52.3,29.56,WNW,292,2.5,2.5,50,0.00,,,0.00,VWS V14.01,2013-07-29 15:32:00,
2013-07-29 11:37:00,72.3,50.4,29.56,WNW,292,4.9,4.9,46,0.00,,,0.00,VWS V14.01,2013-07-29 15:37:00,
2013-07-29 11:42:00,72.7,52.4,29.56,WNW,292,4.7,4.7,49,0.00,,,0.00,VWS V14.01,2013-07-29 15:42:00,
2013-07-29 11:47:00,72.9,52.0,29.56,NW,315,4.7,4.7,48,0.00,,,0.00,VWS V14.01,2013-07-29 15:47:00,
2013-07-29 11:52:00,73.2,51.8,29.56,NW,315,1.6,1.6,47,0.00,,,0.00,VWS V14.01,2013-07-29 15:52:00,
2013-07-29 11:58:00,73.8,52.9,29.56,West,270,3.8,3.8,48,0.00,,,0.00,VWS V14.01,2013-07-29 15:58:00,
2013-07-29 12:03:00,74.1,50.2,29.56,West,270,8.5,8.5,43,0.00,,,0.00,VWS V14.01,2013-07-29 16:03:00,
2013-07-29 12:08:00,74.3,51.0,29.56,SSE,158,2.5,2.5,44,0.00,,,0.00,VWS V14.01,2013-07-29 16:08:00,
2013-07-29 12:13:00,74.5,49.9,29.56,West,270,5.6,5.6,42,0.00,,,0.00,VWS V14.01,2013-07-29 16:13:00,
2013-07-29 12:18:00,74.8,51.5,29.56,WSW,248,4.0,4.0,44,0.00,,,0.00,VWS V14.01,2013-07-29 16:18:00,
2013-07-29 12:23:00,75.0,51.0,29.56,WSW,248,8.7,8.7,43,0.00,,,0.00,VWS V14.01,2013-07-29 16:23:00,
2013-07-29 12:28:00,75.2,49.9,29.56,WSW,248,3.8,3.8,41,0.00,,,0.00,VWS V14.01,2013-07-29 16:28:00,
2013-07-29 12:33:00,75.4,50.7,29.56,WSW,248,3.8,3.8,42,0.00,,,0.00,VWS V14.01,2013-07-29 16:33:00,
2013-07-29 12:38:00,75.6,50.9,29.56,WSW,248,3.1,3.1,42,0.00,,,0.00,VWS V14.01,2013-07-29 16:38:00,
2013-07-29 12:44:00,75.7,51.0,29.56,West,270,3.1,3.1,42,0.00,,,0.00,VWS V14.01,2013-07-29 16:44:00,
2013-07-29 12:49:00,75.9,51.2,29.56,WSW,248,5.8,5.8,42,0.00,,,0.00,VWS V14.01,2013-07-29 16:49:00,
2013-07-29 12:54:00,76.3,52.2,29.56,West,270,6.3,6.3,43,0.00,,,0.00,VWS V14.01,2013-07-29 16:54:00,
2013-07-29 12:59:00,76.1,51.4,29.56,West,270,3.8,3.8,42,0.00,,,0.00,VWS V14.01,2013-07-29 16:59:00,
2013-07-29 13:04:00,75.7,50.4,29.56,WNW,292,5.8,5.8,41,0.00,,,0.00,VWS V14.01,2013-07-29 17:04:00,
2013-07-29 13:09:00,75.7,51.0,29.53,West,270,9.4,9.4,42,0.00,,,0.00,VWS V14.01,2013-07-29 17:09:00,
2013-07-29 13:14:00,75.7,50.4,29.53,NNW,338,6.3,6.3,41,0.00,,,0.00,VWS V14.01,2013-07-29 17:14:00,
2013-07-29 13:19:00,75.6,50.9,29.53,NNW,338,4.5,4.5,42,0.00,,,0.00,VWS V14.01,2013-07-29 17:19:00,
2013-07-29 13:24:00,75.7,47.7,29.56,WSW,248,7.8,7.8,37,0.00,,,0.00,VWS V14.01,2013-07-29 17:24:00,
2013-07-29 13:29:00,75.9,49.9,29.56,West,270,6.5,6.5,40,0.00,,,0.00,VWS V14.01,2013-07-29 17:29:00,
2013-07-29 13:35:00,76.1,51.4,29.56,NNE,22,4.0,4.0,42,0.00,,,0.00,VWS V14.01,2013-07-29 17:35:00,
2013-07-29 13:40:00,75.7,50.4,29.56,NNE,22,5.4,5.4,41,0.00,,,0.00,VWS V14.01,2013-07-29 17:40:00,
2013-07-29 13:45:00,75.9,49.9,29.56,NW,315,5.6,5.6,40,0.00,,,0.00,VWS V14.01,2013-07-29 17:45:00,
2013-07-29 13:50:00,76.5,49.7,29.56,WSW,248,7.6,7.6,39,0.00,,,0.00,VWS V14.01,2013-07-29 17:50:00,
2013-07-29 13:55:00,76.5,49.7,29.56,NW,315,4.9,4.9,39,0.00,,,0.00,VWS V14.01,2013-07-29 17:55:00,
2013-07-29 14:01:00,76.6,51.2,29.56,WNW,292,3.6,3.6,41,0.00,,,0.00,VWS V14.01,2013-07-29 18:01:00,
2013-07-29 14:06:00,76.6,49.8,29.56,WNW,292,4.9,4.9,39,0.00,,,0.00,VWS V14.01,2013-07-29 18:06:00,
2013-07-29 14:11:00,77.0,49.5,29.56,West,270,5.4,5.4,38,0.00,,,0.00,VWS V14.01,2013-07-29 18:11:00,
2013-07-29 14:16:00,77.2,51.0,29.56,West,270,4.0,4.0,40,0.00,,,0.00,VWS V14.01,2013-07-29 18:16:00,
2013-07-29 14:21:00,77.0,50.9,29.56,West,270,6.0,6.0,40,0.00,,,0.00,VWS V14.01,2013-07-29 18:21:00,
2013-07-29 14:27:00,77.5,50.7,29.56,WSW,248,5.6,5.6,39,0.00,,,0.00,VWS V14.01,2013-07-29 18:27:00,
2013-07-29 14:32:00,77.5,49.2,29.56,NW,315,6.3,6.3,37,0.00,,,0.00,VWS V14.01,2013-07-29 18:32:00,
2013-07-29 14:37:00,77.4,49.8,29.53,NW,315,4.0,4.0,38,0.00,,,0.00,VWS V14.01,2013-07-29 18:37:00,
2013-07-29 14:42:00,77.7,51.5,29.53,NW,315,6.0,6.0,40,0.00,,,0.00,VWS V14.01,2013-07-29 18:42:00,
2013-07-29 14:47:00,78.1,51.8,29.53,WNW,292,6.5,6.5,40,0.00,,,0.00,VWS V14.01,2013-07-29 18:47:00,
2013-07-29 14:52:00,77.4,48.3,29.59,West,270,6.3,6.3,36,0.00,,,0.00,VWS V14.01,2013-07-29 18:52:00,
2013-07-29 14:57:00,77.7,52.2,29.59,NW,315,6.0,6.0,41,0.00,,,0.00,VWS V14.01,2013-07-29 18:57:00,
2013-07-29 15:03:00,77.7,49.4,29.59,NNW,338,5.4,5.4,37,0.00,,,0.00,VWS V14.01,2013-07-29 19:03:00,
2013-07-29 15:08:00,77.5,50.0,29.56,WNW,292,6.3,6.3,38,0.00,,,0.00,VWS V14.01,2013-07-29 19:08:00,
2013-07-29 15:13:00,77.2,49.6,29.56,WSW,248,3.6,3.6,38,0.00,,,0.00,VWS V14.01,2013-07-29 19:13:00,
2013-07-29 15:18:00,76.8,49.3,29.56,NNW,338,7.2,7.2,38,0.00,,,0.00,VWS V14.01,2013-07-29 19:18:00,
2013-07-29 15:23:00,77.4,50.5,29.56,WSW,248,6.3,6.3,39,0.00,,,0.00,VWS V14.01,2013-07-29 19:23:00,
2013-07-29 15:29:00,77.9,50.3,29.56,WSW,248,6.3,6.3,38,0.00,,,0.00,VWS V14.01,2013-07-29 19:29:00,
2013-07-29 15:34:00,77.7,50.1,29.56,West,270,6.0,6.0,38,0.00,,,0.00,VWS V14.01,2013-07-29 19:34:00,
2013-07-29 15:39:00,77.5,50.0,29.56,WSW,248,5.4,5.4,38,0.00,,,0.00,VWS V14.01,2013-07-29 19:39:00,
2013-07-29 15:44:00,77.9,50.3,29.56,West,270,5.4,5.4,38,0.00,,,0.00,VWS V14.01,2013-07-29 19:44:00,
2013-07-29 15:49:00,78.6,51.6,29.56,WNW,292,3.8,3.8,39,0.00,,,0.00,VWS V14.01,2013-07-29 19:49:00,
2013-07-29 15:54:00,79.2,50.7,29.56,West,270,6.5,6.5,37,0.00,,,0.00,VWS V14.01,2013-07-29 19:54:00,
2013-07-29 15:59:00,79.2,49.9,29.56,WSW,248,3.6,3.6,36,0.00,,,0.00,VWS V14.01,2013-07-29 19:59:00,
2013-07-29 16:05:00,78.8,48.9,29.56,WSW,248,5.8,5.8,35,0.00,,,0.00,VWS V14.01,2013-07-29 20:05:00,
2013-07-29 16:10:00,79.3,49.3,29.56,WSW,248,5.6,5.6,35,0.00,,,0.00,VWS V14.01,2013-07-29 20:10:00,
2013-07-29 16:15:00,79.3,48.6,29.56,WNW,292,3.6,3.6,34,0.00,,,0.00,VWS V14.01,2013-07-29 20:15:00,
2013-07-29 16:20:00,78.6,47.9,29.56,WSW,248,7.4,7.4,34,0.00,,,0.00,VWS V14.01,2013-07-29 20:20:00,
2013-07-29 16:25:00,78.6,49.5,29.53,WNW,292,3.8,3.8,36,0.00,,,0.00,VWS V14.01,2013-07-29 20:25:00,
2013-07-29 16:30:00,79.2,48.4,29.53,West,270,8.7,8.7,34,0.00,,,0.00,VWS V14.01,2013-07-29 20:30:00,
2013-07-29 16:35:00,79.0,49.0,29.53,SW,225,6.0,6.0,35,0.00,,,0.00,VWS V14.01,2013-07-29 20:35:00,
2013-07-29 16:41:00,79.2,49.2,29.53,NW,315,2.5,2.5,35,0.00,,,0.00,VWS V14.01,2013-07-29 20:41:00,
2013-07-29 16:46:00,79.9,50.6,29.53,WNW,292,6.5,6.5,36,0.00,,,0.00,VWS V14.01,2013-07-29 20:46:00,
2013-07-29 16:51:00,79.7,51.2,29.53,West,270,4.9,4.9,37,0.00,,,0.00,VWS V14.01,2013-07-29 20:51:00,
2013-07-29 16:56:00,79.2,49.2,29.56,South,180,3.4,3.4,35,0.00,,,0.00,VWS V14.01,2013-07-29 20:56:00,
2013-07-29 17:02:00,78.6,47.9,29.56,WNW,292,5.6,5.6,34,0.00,,,0.00,VWS V14.01,2013-07-29 21:02:00,
2013-07-29 17:07:00,78.3,48.4,29.56,NW,315,3.4,3.4,35,0.00,,,0.00,VWS V14.01,2013-07-29 21:07:00,
2013-07-29 17:12:00,78.3,49.1,29.56,WNW,292,3.6,3.6,36,0.00,,,0.00,VWS V14.01,2013-07-29 21:12:00,
2013-07-29 17:17:00,78.3,49.1,29.56,West,270,5.6,5.6,36,0.00,,,0.00,VWS V14.01,2013-07-29 21:17:00,
2013-07-29 17:23:00,78.3,48.4,29.53,WNW,292,5.8,5.8,35,0.00,,,0.00,VWS V14.01,2013-07-29 21:23:00,
2013-07-29 17:28:00,77.9,48.8,29.53,WNW,292,3.8,3.8,36,0.00,,,0.00,VWS V14.01,2013-07-29 21:28:00,
2013-07-29 17:33:00,77.9,48.1,29.53,West,270,7.4,7.4,35,0.00,,,0.00,VWS V14.01,2013-07-29 21:33:00,
2013-07-29 17:38:00,78.1,48.2,29.56,WNW,292,2.5,2.5,35,0.00,,,0.00,VWS V14.01,2013-07-29 21:38:00,
2013-07-29 17:43:00,77.7,47.1,29.56,West,270,9.6,9.6,34,0.00,,,0.00,VWS V14.01,2013-07-29 21:43:00,
2013-07-29 17:48:00,77.5,47.8,29.56,West,270,3.1,3.1,35,0.00,,,0.00,VWS V14.01,2013-07-29 21:48:00,
2013-07-29 17:53:00,77.4,47.6,29.56,WNW,292,4.9,4.9,35,0.00,,,0.00,VWS V14.01,2013-07-29 21:53:00,
2013-07-29 17:58:00,77.5,49.2,29.56,NNW,338,2.9,2.9,37,0.00,,,0.00,VWS V14.01,2013-07-29 21:58:00,
2013-07-29 18:03:00,77.5,47.8,29.56,West,270,5.8,5.8,35,0.00,,,0.00,VWS V14.01,2013-07-29 22:03:00,
2013-07-29 18:09:00,77.4,47.6,29.56,West,270,5.4,5.4,35,0.00,,,0.00,VWS V14.01,2013-07-29 22:09:00,
2013-07-29 18:14:00,77.2,47.4,29.56,WNW,292,3.6,3.6,35,0.00,,,0.00,VWS V14.01,2013-07-29 22:14:00,
2013-07-29 18:19:00,77.0,48.0,29.56,West,270,2.9,2.9,36,0.00,,,0.00,VWS V14.01,2013-07-29 22:19:00,
2013-07-29 18:24:00,77.0,48.0,29.56,West,270,2.5,2.5,36,0.00,,,0.00,VWS V14.01,2013-07-29 22:24:00,
2013-07-29 18:29:00,76.8,47.9,29.56,WNW,292,4.9,4.9,36,0.00,,,0.00,VWS V14.01,2013-07-29 22:29:00,
2013-07-29 18:34:00,76.8,48.6,29.56,WSW,248,2.5,2.5,37,0.00,,,0.00,VWS V14.01,2013-07-29 22:34:00,
2013-07-29 18:39:00,76.6,48.4,29.56,WNW,292,2.7,2.7,37,0.00,,,0.00,VWS V14.01,2013-07-29 22:39:00,
2013-07-29 18:45:00,76.6,48.4,29.56,WNW,292,3.8,3.8,37,0.00,,,0.00,VWS V14.01,2013-07-29 22:45:00,
2013-07-29 18:50:00,76.3,48.8,29.56,WSW,248,4.7,4.7,38,0.00,,,0.00,VWS V14.01,2013-07-29 22:50:00,
2013-07-29 18:55:00,76.1,48.7,29.56,West,270,2.5,2.5,38,0.00,,,0.00,VWS V14.01,2013-07-29 22:55:00,
2013-07-29 19:00:00,76.3,49.5,29.56,West,270,2.5,2.5,39,0.00,,,0.00,VWS V14.01,2013-07-29 23:00:00,
2013-07-29 19:06:00,76.5,51.0,29.56,WSW,248,1.1,1.1,41,0.00,,,0.00,VWS V14.01,2013-07-29 23:06:00,
2013-07-29 19:11:00,76.6,50.5,29.56,West,270,2.5,2.5,40,0.00,,,0.00,VWS V14.01,2013-07-29 23:11:00,
2013-07-29 19:16:00,76.6,51.2,29.56,WNW,292,2.7,2.7,41,0.00,,,0.00,VWS V14.01,2013-07-29 23:16:00,
2013-07-29 19:22:00,76.6,51.2,29.56,WSW,248,6.3,6.3,41,0.00,,,0.00,VWS V14.01,2013-07-29 23:22:00,
2013-07-29 19:27:00,76.5,51.0,29.56,West,270,3.8,3.8,41,0.00,,,0.00,VWS V14.01,2013-07-29 23:27:00,
2013-07-29 19:32:00,76.5,50.4,29.56,West,270,2.7,2.7,40,0.00,,,0.00,VWS V14.01,2013-07-29 23:32:00,
2013-07-29 19:37:00,75.9,50.5,29.56,WSW,248,3.1,3.1,41,0.00,,,0.00,VWS V14.01,2013-07-29 23:37:00,
2013-07-29 19:42:00,75.7,50.4,29.56,West,270,4.9,4.9,41,0.00,,,0.00,VWS V14.01,2013-07-29 23:42:00,
2013-07-29 19:47:00,75.6,50.2,29.56,West,270,5.4,5.4,41,0.00,,,0.00,VWS V14.01,2013-07-29 23:47:00,
2013-07-29 19:53:00,74.5,49.3,29.56,West,270,3.6,3.6,41,0.00,,,0.00,VWS V14.01,2013-07-29 23:53:00,
2013-07-29 19:58:00,74.1,48.9,29.56,West,270,1.6,1.6,41,0.00,,,0.00,VWS V14.01,2013-07-29 23:58:00,
2013-07-29 20:03:00,73.6,49.1,29.56,WSW,248,2.0,2.0,42,0.00,,,0.00,VWS V14.01,2013-07-30 00:03:00,
2013-07-29 20:09:00,73.2,49.4,29.59,WNW,292,1.6,1.6,43,0.00,,,0.00,VWS V14.01,2013-07-30 00:09:00,
2013-07-29 20:14:00,72.9,49.7,29.59,WSW,248,1.6,1.6,44,0.00,,,0.00,VWS V14.01,2013-07-30 00:14:00,
2013-07-29 20:19:00,72.5,50.0,29.59,West,270,0.9,0.9,45,0.00,,,0.00,VWS V14.01,2013-07-30 00:19:00,
2013-07-29 20:25:00,72.1,50.2,29.59,West,270,0.0,0.0,46,0.00,,,0.00,VWS V14.01,2013-07-30 00:25:00,
2013-07-29 20:30:00,71.6,50.3,29.59,WSW,248,0.0,0.0,47,0.00,,,0.00,VWS V14.01,2013-07-30 00:30:00,
2013-07-29 20:35:00,71.1,50.4,29.59,WSW,248,0.0,0.0,48,0.00,,,0.00,VWS V14.01,2013-07-30 00:35:00,
2013-07-29 20:40:00,70.9,50.8,29.59,West,270,0.0,0.0,49,0.00,,,0.00,VWS V14.01,2013-07-30 00:40:00,
2013-07-29 20:46:00,70.5,51.0,29.59,West,270,0.9,0.9,50,0.00,,,0.00,VWS V14.01,2013-07-30 00:46:00,
2013-07-29 20:51:00,70.3,50.8,29.59,West,270,2.2,2.2,50,0.00,,,0.00,VWS V14.01,2013-07-30 00:51:00,
2013-07-29 20:56:00,70.0,51.6,29.59,West,270,2.2,2.2,52,0.00,,,0.00,VWS V14.01,2013-07-30 00:56:00,
2013-07-29 21:01:00,69.8,51.4,29.59,West,270,2.7,2.7,52,0.00,,,0.00,VWS V14.01,2013-07-30 01:01:00,
2013-07-29 21:06:00,69.6,51.2,29.59,West,270,2.5,2.5,52,0.00,,,0.00,VWS V14.01,2013-07-30 01:06:00,
2013-07-29 21:11:00,69.4,51.1,29.59,WSW,248,1.6,1.6,52,0.00,,,0.00,VWS V14.01,2013-07-30 01:11:00,
2013-07-29 21:17:00,69.4,51.1,29.59,West,270,1.6,1.6,52,0.00,,,0.00,VWS V14.01,2013-07-30 01:17:00,
2013-07-29 21:22:00,69.3,50.9,29.59,WSW,248,2.0,2.0,52,0.00,,,0.00,VWS V14.01,2013-07-30 01:22:00,
2013-07-29 21:27:00,69.1,50.7,29.59,West,270,2.7,2.7,52,0.00,,,0.00,VWS V14.01,2013-07-30 01:27:00,
2013-07-29 21:32:00,68.9,50.6,29.59,WSW,248,2.2,2.2,52,0.00,,,0.00,VWS V14.01,2013-07-30 01:32:00,
2013-07-29 21:37:00,68.7,50.9,29.62,WSW,248,1.1,1.1,53,0.00,,,0.00,VWS V14.01,2013-07-30 01:37:00,
2013-07-29 21:42:00,68.4,52.1,29.62,WSW,248,0.0,0.0,56,0.00,,,0.00,VWS V14.01,2013-07-30 01:42:00,
2013-07-29 21:47:00,68.0,52.7,29.62,WSW,248,1.3,1.3,58,0.00,,,0.00,VWS V14.01,2013-07-30 01:47:00,
2013-07-29 21:52:00,67.8,52.5,29.62,West,270,3.1,3.1,58,0.00,,,0.00,VWS V14.01,2013-07-30 01:52:00,
2013-07-29 21:57:00,67.6,52.3,29.62,West,270,3.4,3.4,58,0.00,,,0.00,VWS V14.01,2013-07-30 01:57:00,
2013-07-29 22:02:00,67.6,52.3,29.62,WSW,248,4.7,4.7,58,0.00,,,0.00,VWS V14.01,2013-07-30 02:02:00,
2013-07-29 22:08:00,67.6,52.3,29.62,West,270,3.8,3.8,58,0.00,,,0.00,VWS V14.01,2013-07-30 02:08:00,
2013-07-29 22:13:00,67.5,52.2,29.62,West,270,4.0,4.0,58,0.00,,,0.00,VWS V14.01,2013-07-30 02:13:00,
2013-07-29 22:18:00,67.5,52.2,29.62,West,270,4.0,4.0,58,0.00,,,0.00,VWS V14.01,2013-07-30 02:18:00,
2013-07-29 22:23:00,67.5,52.2,29.62,West,270,3.1,3.1,58,0.00,,,0.00,VWS V14.01,2013-07-30 02:23:00,
2013-07-29 22:28:00,67.5,52.2,29.62,WSW,248,2.9,2.9,58,0.00,,,0.00,VWS V14.01,2013-07-30 02:28:00,
2013-07-29 22:34:00,67.3,52.5,29.62,West,270,2.9,2.9,59,0.00,,,0.00,VWS V14.01,2013-07-30 02:34:00,
2013-07-29 22:39:00,67.3,52.5,29.62,WSW,248,4.0,4.0,59,0.00,,,0.00,VWS V14.01,2013-07-30 02:39:00,
2013-07-29 22:44:00,67.1,52.3,29.62,WSW,248,3.6,3.6,59,0.00,,,0.00,VWS V14.01,2013-07-30 02:44:00,
2013-07-29 22:49:00,66.9,52.1,29.62,West,270,4.3,4.3,59,0.00,,,0.00,VWS V14.01,2013-07-30 02:49:00,
2013-07-29 22:55:00,66.7,52.0,29.62,West,270,4.3,4.3,59,0.00,,,0.00,VWS V14.01,2013-07-30 02:55:00,
2013-07-29 23:00:00,66.6,52.3,29.62,WSW,248,4.0,4.0,60,0.00,,,0.00,VWS V14.01,2013-07-30 03:00:00,
2013-07-29 23:05:00,66.6,51.8,29.62,West,270,2.7,2.7,59,0.00,,,0.00,VWS V14.01,2013-07-30 03:05:00,
2013-07-29 23:10:00,66.4,52.1,29.62,WSW,248,3.4,3.4,60,0.00,,,0.00,VWS V14.01,2013-07-30 03:10:00,
2013-07-29 23:15:00,66.2,51.9,29.62,WSW,248,3.6,3.6,60,0.00,,,0.00,VWS V14.01,2013-07-30 03:15:00,
2013-07-29 23:20:00,66.0,52.6,29.62,WSW,248,3.1,3.1,62,0.00,,,0.00,VWS V14.01,2013-07-30 03:20:00,
2013-07-29 23:25:00,65.7,52.3,29.62,West,270,3.8,3.8,62,0.00,,,0.00,VWS V14.01,2013-07-30 03:25:00,
2013-07-29 23:31:00,65.5,52.6,29.62,WSW,248,3.6,3.6,63,0.00,,,0.00,VWS V14.01,2013-07-30 03:31:00,
2013-07-29 23:36:00,65.3,52.4,29.62,West,270,4.3,4.3,63,0.00,,,0.00,VWS V14.01,2013-07-30 03:36:00,
2013-07-29 23:41:00,65.1,52.2,29.62,WSW,248,3.1,3.1,63,0.00,,,0.00,VWS V14.01,2013-07-30 03:41:00,
2013-07-29 23:46:00,65.1,52.2,29.62,WSW,248,3.4,3.4,63,0.00,,,0.00,VWS V14.01,2013-07-30 03:46:00,
2013-07-29 23:51:00,64.9,52.5,29.62,WSW,248,5.4,5.4,64,0.00,,,0.00,VWS V14.01,2013-07-30 03:51:00,
2013-07-29 23:57:00,64.8,52.3,29.62,WSW,248,4.3,4.3,64,0.00,,,0.00,VWS V14.01,2013-07-30 03:57:00,